Time,TemperatureF,DewpointF,PressureIn,WindDirection,WindDirectionDegrees,WindSpeedMPH,WindSpeedGustMPH,Humidity,HourlyPrecipIn,Conditions,Clouds,dailyrainin,SoftwareType,DateUTC
2013-04-18 00:03:00,76.0,-99.9,30.07,ENE,61,4.0,6.0,-999,-99.99,,,-99.99,,2013-04-18 04:03:00,
2013-04-18 00:13:00,75.0,-99.9,30.07,ENE,63,5.0,8.0,-999,-99.99,,,-99.99,,2013-04-18 04:13:00,
2013-04-18 00:23:00,75.0,-99.9,30.07,ENE,70,5.0,9.0,-999,-99.99,,,-99.99,,2013-04-18 04:23:00,
2013-04-18 00:33:00,75.0,-99.9,30.07,ENE,69,5.0,10.0,-999,-99.99,,,-99.99,,2013-04-18 04:33:00,
2013-04-18 00:43:00,75.0,-99.9,30.07,ENE,78,6.0,10.0,-999,-99.99,,,-99.99,,2013-04-18 04:43:00,
2013-04-18 00:53:00,75.0,-99.9,30.07,ENE,65,6.0,9.0,-999,-99.99,,,-99.99,,2013-04-18 04:53:00,
2013-04-18 01:02:00,75.0,-99.9,30.07,ENE,65,6.0,9.0,-999,-99.99,,,-99.99,,2013-04-18 05:02:00,
2013-04-18 01:12:00,74.0,-99.9,30.06,East,82,6.0,9.0,-999,-99.99,,,-99.99,,2013-04-18 05:12:00,
2013-04-18 01:22:00,74.0,-99.9,30.06,East,90,4.0,9.0,-999,-99.99,,,-99.99,,2013-04-18 05:22:00,
2013-04-18 01:33:00,74.0,-99.9,30.06,East,82,6.0,10.0,-999,-99.99,,,-99.99,,2013-04-18 05:33:00,
2013-04-18 01:42:00,74.0,-99.9,30.05,East,82,6.0,10.0,-999,-99.99,,,-99.99,,2013-04-18 05:42:00,
2013-04-18 01:52:00,74.0,-99.9,30.05,ENE,78,5.0,10.0,-999,-99.99,,,-99.99,,2013-04-18 05:52:00,
2013-04-18 02:02:00,74.0,-99.9,30.05,ENE,78,7.0,10.0,-999,-99.99,,,-99.99,,2013-04-18 06:02:00,
2013-04-18 02:12:00,74.0,-99.9,30.04,ENE,73,7.0,12.0,-999,-99.99,,,-99.99,,2013-04-18 06:12:00,
2013-04-18 02:22:00,74.0,-99.9,30.03,East,87,8.0,12.0,-999,-99.99,,,-99.99,,2013-04-18 06:22:00,
2013-04-18 02:32:00,73.0,-99.9,30.03,East,88,5.0,11.0,-999,-99.99,,,-99.99,,2013-04-18 06:32:00,
2013-04-18 02:42:00,73.0,-99.9,30.03,ESE,105,5.0,11.0,-999,-99.99,,,-99.99,,2013-04-18 06:42:00,
2013-04-18 02:52:00,73.0,-99.9,30.03,East,101,6.0,10.0,-999,-99.99,,,-99.99,,2013-04-18 06:52:00,
2013-04-18 03:02:00,73.0,-99.9,30.02,East,91,5.0,8.0,-999,-99.99,,,-99.99,,2013-04-18 07:02:00,
2013-04-18 03:12:00,73.0,-99.9,30.02,East,95,5.0,9.0,-999,-99.99,,,-99.99,,2013-04-18 07:12:00,
2013-04-18 03:22:00,73.0,-99.9,30.02,East,100,6.0,11.0,-999,-99.99,,,-99.99,,2013-04-18 07:22:00,
2013-04-18 03:32:00,73.0,-99.9,30.01,ESE,103,5.0,13.0,-999,-99.99,,,-99.99,,2013-04-18 07:32:00,
2013-04-18 03:42:00,73.0,-99.9,30.01,ESE,106,5.0,9.0,-999,-99.99,,,-99.99,,2013-04-18 07:42:00,
2013-04-18 03:53:00,73.0,-99.9,30.01,ESE,108,7.0,11.0,-999,-99.99,,,-99.99,,2013-04-18 07:53:00,
2013-04-18 04:02:00,73.0,-99.9,30.01,ESE,112,6.0,11.0,-999,-99.99,,,-99.99,,2013-04-18 08:02:00,
2013-04-18 04:12:00,73.0,-99.9,30.00,East,98,5.0,10.0,-999,-99.99,,,-99.99,,2013-04-18 08:12:00,
2013-04-18 04:22:00,73.0,-99.9,30.01,East,99,5.0,8.0,-999,-99.99,,,-99.99,,2013-04-18 08:22:00,
2013-04-18 04:32:00,72.0,-99.9,30.01,East,80,6.0,8.0,-999,-99.99,,,-99.99,,2013-04-18 08:32:00,
2013-04-18 04:42:00,72.0,-99.9,30.01,East,90,5.0,8.0,-999,-99.99,,,-99.99,,2013-04-18 08:42:00,
2013-04-18 04:52:00,72.0,-99.9,30.01,ENE,75,3.0,6.0,-999,-99.99,,,-99.99,,2013-04-18 08:52:00,
2013-04-18 05:02:00,72.0,-99.9,30.01,ENE,75,4.0,7.0,-999,-99.99,,,-99.99,,2013-04-18 09:02:00,
2013-04-18 05:12:00,72.0,-99.9,30.01,ENE,76,4.0,8.0,-999,-99.99,,,-99.99,,2013-04-18 09:12:00,
2013-04-18 05:22:00,72.0,-99.9,30.01,East,85,3.0,8.0,-999,-99.99,,,-99.99,,2013-04-18 09:22:00,
2013-04-18 05:33:00,72.0,-99.9,30.01,East,96,4.0,7.0,-999,-99.99,,,-99.99,,2013-04-18 09:33:00,
2013-04-18 05:43:00,72.0,-99.9,30.01,East,96,6.0,8.0,-999,-99.99,,,-99.99,,2013-04-18 09:43:00,
2013-04-18 05:53:00,72.0,-99.9,30.01,ESE,103,5.0,8.0,-999,-99.99,,,-99.99,,2013-04-18 09:53:00,
2013-04-18 06:03:00,72.0,-99.9,30.01,East,89,4.0,8.0,-999,-99.99,,,-99.99,,2013-04-18 10:03:00,
2013-04-18 06:12:00,72.0,-99.9,30.01,ESE,113,4.0,6.0,-999,-99.99,,,-99.99,,2013-04-18 10:12:00,
2013-04-18 06:23:00,72.0,-99.9,30.01,East,95,5.0,8.0,-999,-99.99,,,-99.99,,2013-04-18 10:23:00,
2013-04-18 06:33:00,72.0,-99.9,30.01,East,89,3.0,8.0,-999,-99.99,,,-99.99,,2013-04-18 10:33:00,
2013-04-18 06:42:00,72.0,-99.9,30.02,ENE,76,3.0,5.0,-999,-99.99,,,-99.99,,2013-04-18 10:42:00,
2013-04-18 06:53:00,72.0,-99.9,30.02,East,95,4.0,7.0,-999,-99.99,,,-99.99,,2013-04-18 10:53:00,
2013-04-18 07:03:00,72.0,-99.9,30.02,East,96,4.0,7.0,-999,-99.99,,,-99.99,,2013-04-18 11:03:00,
2013-04-18 07:12:00,72.0,-99.9,30.02,ESE,103,5.0,8.0,-999,-99.99,,,-99.99,,2013-04-18 11:12:00,
2013-04-18 07:22:00,72.0,-99.9,30.02,East,89,4.0,8.0,-999,-99.99,,,-99.99,,2013-04-18 11:22:00,
2013-04-18 07:33:00,72.0,-99.9,30.03,ENE,76,5.0,7.0,-999,-99.99,,,-99.99,,2013-04-18 11:33:00,
2013-04-18 07:42:00,72.0,-99.9,30.03,East,87,5.0,8.0,-999,-99.99,,,-99.99,,2013-04-18 11:42:00,
2013-04-18 07:52:00,72.0,-99.9,30.04,East,87,4.0,7.0,-999,-99.99,,,-99.99,,2013-04-18 11:52:00,
2013-04-18 08:02:00,72.0,-99.9,30.04,East,81,4.0,8.0,-999,-99.99,,,-99.99,,2013-04-18 12:02:00,
2013-04-18 08:12:00,72.0,-99.9,30.04,ENE,74,5.0,8.0,-999,-99.99,,,-99.99,,2013-04-18 12:12:00,
2013-04-18 08:23:00,72.0,-99.9,30.04,ENE,75,4.0,10.0,-999,-99.99,,,-99.99,,2013-04-18 12:23:00,
2013-04-18 08:32:00,73.0,-99.9,30.05,East,79,4.0,7.0,-999,-99.99,,,-99.99,,2013-04-18 12:32:00,
2013-04-18 08:42:00,74.0,-99.9,30.05,East,85,4.0,6.0,-999,-99.99,,,-99.99,,2013-04-18 12:42:00,
2013-04-18 08:53:00,74.0,-99.9,30.05,ENE,78,5.0,9.0,-999,-99.99,,,-99.99,,2013-04-18 12:53:00,
2013-04-18 09:03:00,75.0,-99.9,30.05,East,98,5.0,8.0,-999,-99.99,,,-99.99,,2013-04-18 13:03:00,
2013-04-18 09:13:00,75.0,-99.9,30.05,ESE,107,5.0,9.0,-999,-99.99,,,-99.99,,2013-04-18 13:13:00,
2013-04-18 09:22:00,76.0,-99.9,30.05,East,89,7.0,12.0,-999,-99.99,,,-99.99,,2013-04-18 13:22:00,
2013-04-18 09:33:00,76.0,-99.9,30.05,East,99,6.0,9.0,-999,-99.99,,,-99.99,,2013-04-18 13:33:00,
2013-04-18 09:43:00,77.0,-99.9,30.06,ESE,110,6.0,9.0,-999,-99.99,,,-99.99,,2013-04-18 13:43:00,
2013-04-18 09:53:00,77.0,-99.9,30.06,East,98,5.0,9.0,-999,-99.99,,,-99.99,,2013-04-18 13:53:00,
2013-04-18 10:03:00,78.0,-99.9,30.06,ESE,111,5.0,8.0,-999,-99.99,,,-99.99,,2013-04-18 14:03:00,
2013-04-18 10:13:00,78.0,-99.9,30.06,ESE,121,5.0,8.0,-999,-99.99,,,-99.99,,2013-04-18 14:13:00,
2013-04-18 10:22:00,79.0,-99.9,30.06,East,101,4.0,9.0,-999,-99.99,,,-99.99,,2013-04-18 14:22:00,
2013-04-18 10:33:00,79.0,-99.9,30.06,ESE,111,7.0,11.0,-999,-99.99,,,-99.99,,2013-04-18 14:33:00,
2013-04-18 10:43:00,79.0,-99.9,30.06,SSE,162,8.0,11.0,-999,-99.99,,,-99.99,,2013-04-18 14:43:00,
2013-04-18 10:52:00,80.0,-99.9,30.06,ESE,116,5.0,9.0,-999,-99.99,,,-99.99,,2013-04-18 14:52:00,
2013-04-18 11:03:00,81.0,-99.9,30.06,SSE,166,8.0,11.0,-999,-99.99,,,-99.99,,2013-04-18 15:03:00,
2013-04-18 11:12:00,81.0,-99.9,30.06,SSE,154,9.0,12.0,-999,-99.99,,,-99.99,,2013-04-18 15:12:00,
2013-04-18 11:23:00,82.0,-99.9,30.06,SSE,157,8.0,11.0,-999,-99.99,,,-99.99,,2013-04-18 15:23:00,
2013-04-18 11:33:00,81.0,-99.9,30.06,SSE,164,6.0,12.0,-999,-99.99,,,-99.99,,2013-04-18 15:33:00,
2013-04-18 11:43:00,82.0,-99.9,30.05,SE,128,7.0,10.0,-999,-99.99,,,-99.99,,2013-04-18 15:43:00,
2013-04-18 11:53:00,82.0,-99.9,30.05,SSE,159,10.0,13.0,-999,-99.99,,,-99.99,,2013-04-18 15:53:00,
2013-04-18 12:03:00,82.0,-99.9,30.04,SSE,147,9.0,14.0,-999,-99.99,,,-99.99,,2013-04-18 16:03:00,
2013-04-18 12:13:00,83.0,-99.9,30.04,SSE,151,9.0,15.0,-999,-99.99,,,-99.99,,2013-04-18 16:13:00,
2013-04-18 12:23:00,82.0,-99.9,30.04,South,174,8.0,18.0,-999,-99.99,,,-99.99,,2013-04-18 16:23:00,
2013-04-18 12:33:00,82.0,-99.9,30.03,South,188,2.0,13.0,-999,-99.99,,,-99.99,,2013-04-18 16:33:00,
2013-04-18 12:43:00,82.0,-99.9,30.03,South,169,5.0,22.0,-999,-99.99,,,-99.99,,2013-04-18 16:43:00,
2013-04-18 12:53:00,82.0,-99.9,30.03,SW,214,2.0,20.0,-999,-99.99,,,-99.99,,2013-04-18 16:53:00,
2013-04-18 13:03:00,83.0,-99.9,30.03,SSE,164,11.0,16.0,-999,-99.99,,,-99.99,,2013-04-18 17:03:00,
2013-04-18 13:13:00,83.0,-99.9,30.03,SE,143,10.0,15.0,-999,-99.99,,,-99.99,,2013-04-18 17:13:00,
2013-04-18 13:22:00,83.0,-99.9,30.02,SSE,163,10.0,17.0,-999,-99.99,,,-99.99,,2013-04-18 17:22:00,
2013-04-18 13:33:00,83.0,-99.9,30.02,South,184,3.0,16.0,-999,-99.99,,,-99.99,,2013-04-18 17:33:00,
2013-04-18 13:43:00,83.0,-99.9,30.02,South,173,9.0,15.0,-999,-99.99,,,-99.99,,2013-04-18 17:43:00,
2013-04-18 13:52:00,83.0,-99.9,30.02,SSE,167,9.0,16.0,-999,-99.99,,,-99.99,,2013-04-18 17:52:00,
2013-04-18 14:03:00,83.0,-99.9,30.02,South,172,12.0,18.0,-999,-99.99,,,-99.99,,2013-04-18 18:03:00,
2013-04-18 14:13:00,82.0,-99.9,30.01,South,174,11.0,17.0,-999,-99.99,,,-99.99,,2013-04-18 18:13:00,
2013-04-18 14:23:00,83.0,-99.9,30.01,SSW,193,2.0,5.0,-999,-99.99,,,-99.99,,2013-04-18 18:23:00,
2013-04-18 14:33:00,82.0,-99.9,30.00,South,190,3.0,7.0,-999,-99.99,,,-99.99,,2013-04-18 18:33:00,
2013-04-18 14:43:00,82.0,-99.9,30.00,SSW,193,3.0,10.0,-999,-99.99,,,-99.99,,2013-04-18 18:43:00,
2013-04-18 14:53:00,82.0,-99.9,30.00,SSW,195,3.0,7.0,-999,-99.99,,,-99.99,,2013-04-18 18:53:00,
2013-04-18 15:03:00,82.0,-99.9,29.99,SSW,200,3.0,6.0,-999,-99.99,,,-99.99,,2013-04-18 19:03:00,
2013-04-18 15:13:00,83.0,-99.9,30.00,SSW,194,3.0,7.0,-999,-99.99,,,-99.99,,2013-04-18 19:13:00,
2013-04-18 15:22:00,83.0,-99.9,30.00,SW,223,2.0,5.0,-999,-99.99,,,-99.99,,2013-04-18 19:22:00,
2013-04-18 15:33:00,82.0,-99.9,29.99,South,171,2.0,6.0,-999,-99.99,,,-99.99,,2013-04-18 19:33:00,
2013-04-18 15:43:00,82.0,-99.9,29.99,South,184,3.0,6.0,-999,-99.99,,,-99.99,,2013-04-18 19:43:00,
2013-04-18 15:53:00,82.0,-99.9,29.99,South,188,2.0,6.0,-999,-99.99,,,-99.99,,2013-04-18 19:53:00,
2013-04-18 16:03:00,82.0,-99.9,29.99,South,179,3.0,8.0,-999,-99.99,,,-99.99,,2013-04-18 20:03:00,
2013-04-18 16:12:00,82.0,-99.9,29.98,South,184,3.0,6.0,-999,-99.99,,,-99.99,,2013-04-18 20:12:00,
2013-04-18 16:22:00,82.0,-99.9,29.98,SSW,204,3.0,8.0,-999,-99.99,,,-99.99,,2013-04-18 20:22:00,
2013-04-18 16:32:00,81.0,-99.9,29.98,SSW,200,3.0,6.0,-999,-99.99,,,-99.99,,2013-04-18 20:32:00,
2013-04-18 16:43:00,81.0,-99.9,29.98,SSW,208,2.0,6.0,-999,-99.99,,,-99.99,,2013-04-18 20:43:00,
2013-04-18 16:52:00,81.0,-99.9,29.98,South,189,3.0,6.0,-999,-99.99,,,-99.99,,2013-04-18 20:52:00,
2013-04-18 17:03:00,82.0,-99.9,29.98,South,190,3.0,6.0,-999,-99.99,,,-99.99,,2013-04-18 21:03:00,
2013-04-18 17:12:00,82.0,-99.9,29.98,South,182,3.0,9.0,-999,-99.99,,,-99.99,,2013-04-18 21:12:00,
2013-04-18 17:22:00,82.0,-99.9,29.98,SSW,202,2.0,6.0,-999,-99.99,,,-99.99,,2013-04-18 21:22:00,
2013-04-18 17:33:00,82.0,-99.9,29.98,South,183,3.0,8.0,-999,-99.99,,,-99.99,,2013-04-18 21:33:00,
2013-04-18 17:43:00,81.0,-99.9,29.98,South,184,4.0,13.0,-999,-99.99,,,-99.99,,2013-04-18 21:43:00,
2013-04-18 17:53:00,82.0,-99.9,29.98,SW,219,2.0,9.0,-999,-99.99,,,-99.99,,2013-04-18 21:53:00,
2013-04-18 18:03:00,82.0,-99.9,29.97,SSW,194,3.0,7.0,-999,-99.99,,,-99.99,,2013-04-18 22:03:00,
2013-04-18 18:13:00,82.0,-99.9,29.97,South,181,2.0,7.0,-999,-99.99,,,-99.99,,2013-04-18 22:13:00,
2013-04-18 18:23:00,82.0,-99.9,29.97,South,191,2.0,7.0,-999,-99.99,,,-99.99,,2013-04-18 22:23:00,
2013-04-18 18:33:00,81.0,-99.9,29.97,South,184,4.0,8.0,-999,-99.99,,,-99.99,,2013-04-18 22:33:00,
2013-04-18 18:42:00,82.0,-99.9,29.97,SSW,199,3.0,7.0,-999,-99.99,,,-99.99,,2013-04-18 22:42:00,
2013-04-18 18:53:00,82.0,-99.9,29.97,South,175,3.0,7.0,-999,-99.99,,,-99.99,,2013-04-18 22:53:00,
2013-04-18 19:04:00,82.0,-99.9,29.97,South,188,3.0,12.0,-999,-99.99,,,-99.99,,2013-04-18 23:04:00,
2013-04-18 19:12:00,81.0,-99.9,29.97,South,177,8.0,18.0,-999,-99.99,,,-99.99,,2013-04-18 23:12:00,
2013-04-18 19:22:00,81.0,-99.9,29.97,South,175,7.0,17.0,-999,-99.99,,,-99.99,,2013-04-18 23:22:00,
2013-04-18 19:32:00,81.0,-99.9,29.97,South,177,6.0,16.0,-999,-99.99,,,-99.99,,2013-04-18 23:32:00,
2013-04-18 19:42:00,81.0,-99.9,29.97,South,173,11.0,17.0,-999,-99.99,,,-99.99,,2013-04-18 23:42:00,
2013-04-18 19:52:00,81.0,-99.9,29.97,South,176,10.0,18.0,-999,-99.99,,,-99.99,,2013-04-18 23:52:00,
2013-04-18 20:01:00,81.0,-99.9,29.98,South,170,6.0,17.0,-999,-99.99,,,-99.99,,2013-04-19 00:01:00,
2013-04-18 20:12:00,81.0,-99.9,29.98,South,172,13.0,17.0,-999,-99.99,,,-99.99,,2013-04-19 00:12:00,
2013-04-18 20:22:00,81.0,-99.9,29.98,SSE,168,9.0,18.0,-999,-99.99,,,-99.99,,2013-04-19 00:22:00,
2013-04-18 20:32:00,81.0,-99.9,29.98,South,169,9.0,17.0,-999,-99.99,,,-99.99,,2013-04-19 00:32:00,
2013-04-18 20:42:00,81.0,-99.9,29.98,South,172,13.0,16.0,-999,-99.99,,,-99.99,,2013-04-19 00:42:00,
2013-04-18 20:52:00,81.0,-99.9,29.98,South,171,13.0,16.0,-999,-99.99,,,-99.99,,2013-04-19 00:52:00,
2013-04-18 21:01:00,81.0,-99.9,29.99,SSE,159,7.0,13.0,-999,-99.99,,,-99.99,,2013-04-19 01:01:00,
2013-04-18 21:11:00,81.0,-99.9,30.00,SSE,156,10.0,13.0,-999,-99.99,,,-99.99,,2013-04-19 01:11:00,
2013-04-18 21:21:00,81.0,-99.9,30.00,SSE,164,10.0,14.0,-999,-99.99,,,-99.99,,2013-04-19 01:21:00,
2013-04-18 21:32:00,80.0,-99.9,30.01,SSE,156,7.0,15.0,-999,-99.99,,,-99.99,,2013-04-19 01:32:00,
2013-04-18 21:42:00,80.0,-99.9,30.01,SSE,156,7.0,10.0,-999,-99.99,,,-99.99,,2013-04-19 01:42:00,
2013-04-18 21:52:00,80.0,-99.9,30.01,SE,143,5.0,9.0,-999,-99.99,,,-99.99,,2013-04-19 01:52:00,
2013-04-18 22:02:00,80.0,-99.9,30.01,SE,140,6.0,9.0,-999,-99.99,,,-99.99,,2013-04-19 02:02:00,
2013-04-18 22:11:00,80.0,-99.9,30.02,SE,142,6.0,9.0,-999,-99.99,,,-99.99,,2013-04-19 02:11:00,
2013-04-18 22:21:00,80.0,-99.9,30.02,SE,141,8.0,10.0,-999,-99.99,,,-99.99,,2013-04-19 02:21:00,
2013-04-18 22:32:00,79.0,-99.9,30.02,SE,145,6.0,9.0,-999,-99.99,,,-99.99,,2013-04-19 02:32:00,
2013-04-18 22:42:00,79.0,-99.9,30.02,SE,144,6.0,10.0,-999,-99.99,,,-99.99,,2013-04-19 02:42:00,
2013-04-18 22:52:00,79.0,-99.9,30.02,SE,129,7.0,10.0,-999,-99.99,,,-99.99,,2013-04-19 02:52:00,
2013-04-18 23:01:00,79.0,-99.9,30.02,SE,134,6.0,10.0,-999,-99.99,,,-99.99,,2013-04-19 03:01:00,
2013-04-18 23:12:00,78.0,-99.9,30.03,SE,137,5.0,7.0,-999,-99.99,,,-99.99,,2013-04-19 03:12:00,
2013-04-18 23:22:00,78.0,-99.9,30.03,SE,141,6.0,9.0,-999,-99.99,,,-99.99,,2013-04-19 03:22:00,
2013-04-18 23:33:00,78.0,-99.9,30.03,SE,124,5.0,9.0,-999,-99.99,,,-99.99,,2013-04-19 03:33:00,
2013-04-18 23:43:00,77.0,-99.9,30.03,ESE,118,4.0,8.0,-999,-99.99,,,-99.99,,2013-04-19 03:43:00,
2013-04-18 23:54:00,77.0,-99.9,30.03,SE,128,6.0,8.0,-999,-99.99,,,-99.99,,2013-04-19 03:54:00,